Location: *
(50.8512°N, 5.6907°E)
Time: 13:39:36
(UTC+00:00)

RESURS DK-1 - Pass Details

Date: 09 April 2020
Orbit: 557 x 561 km, 69.9° (Epoch: 02 June)

Event Time Altitude Azimuth Distance (km) Brightness Sun altitude
Rises 19:05:20 0° 335° (NNW) 2,763 6.7 -7.1°
Reaches altitude 10° 19:08:10 10° 355° (N) 1,863 5.4 -7.5°
Maximum altitude 19:11:02 18° 39° (NE) 1,424 4.3 -7.9°
Drops below altitude 10° 19:13:54 10° 83° (E) 1,855 4.5 -8.3°
Enters shadow 19:14:22 - 87° (E) 1,986 4.6 -8.4°
